[[{"header":{"parameterUnit":"m.s-1","parameterCategory":1,"la1":30.2991,"la2":30.254,"lo1":-89.0895,"lo2":-89.0444,"dy":0.0017,"dx":0.0017,"nx":28,"ny":28,"refTime":"2023-03-19T21:00:00:Z","depth":0,"parameterNumber":2,"parameterNumberName":"U-component_of_WINDS"},"data":[0,0,0,0,0,0,0,0,0,0,0,0,0,0,0,0,0,0,0,0,0,0,0,0,0,0,0,0,0,0,0,0,0,0,0,0,0,0,0,0,0,0,0,0,0,0,0,0,0,0,0,0,0,0,0,0,0,0,-1.5973,-1.5975,0,-1.6139,-1.6141,-1.6143,-1.6117,-1.6115,-1.6112,-1.6109,-1.6283,-1.629,-1.6298,0,0,0,0,0,0,0,0,0,0,0,0,0,-1.5636,-1.5642,-1.5973,-1.5975,-1.5977,-1.6139,-1.6141,-1.6143,-1.6118,-1.6114,-1.6111,-1.6108,-1.6281,-1.629,-1.6298,0,0,0,0,0,0,0,0,0,0,0,0,0,-1.579,-1.5644,-1.5972,-1.5984,-1.5986,-1.6138,-1.6141,-1.6144,-1.6119,-1.6114,-1.611,-1.6106,-1.6278,-1.6289,-1.6299,-1.6452,0,0,-1.6333,-1.6338,0,0,0,0,0,0,0,0,-1.5781,-1.5802,-1.598,-1.5983,-1.5986,-1.6103,-1.6086,-1.6248,-1.612,-1.6069,-1.6109,-1.6104,-1.6227,-1.6242,-1.6283,-1.646,-1.6468,-1.6334,-1.634,-1.6345,-1.6348,0,0,0,0,0,0,0,-1.5771,-1.5795,-1.6039,-1.5982,-1.5986,-1.5981,-1.5998,-1.6117,-1.617,-1.6073,-1.6071,-1.6091,-1.6228,-1.6272,-1.6287,-1.647,-1.6334,-1.6343,-1.635,-1.6354,-1.6782,-1.6786,0,0,0,0,0,0,-1.5756,-1.5786,-1.6033,-1.6044,-1.5871,-1.5991,-1.601,-1.607,-1.6168,-1.6179,-1.6094,-1.6089,-1.6256,-1.6274,-1.6293,-1.6478,-1.6345,-1.6355,-1.6362,-1.6777,-1.6783,-1.6788,0,0,0,0,0,0,-1.5749,-1.5779,-1.6027,-1.5915,-1.5946,-1.6001,-1.6069,-1.6075,-1.612,-1.6185,-1.6194,-1.613,-1.6253,-1.6277,-1.6412,-1.6484,-1.636,-1.637,-1.6771,-1.6779,-1.6785,-1.6851,0,0,0,0,0,0,-1.574,-1.5776,-1.5834,-1.5916,-1.5952,-1.6143,-1.6073,-1.6082,-1.6138,-1.6133,-1.622,-1.6231,-1.6251,-1.6396,-1.6423,-1.6497,-1.6379,-1.6765,-1.6775,-1.6783,-1.6843,-1.686,-1.6874,0,0,0,0,0,-1.5728,-1.5847,-1.5837,-1.5867,-1.6026,-1.6148,-1.6168,-1.6188,-1.6144,-1.6203,-1.6245,-1.6228,-1.6471,-1.641,-1.6441,-1.6519,-1.6761,-1.6772,-1.6783,-1.6836,-1.6856,-1.6874,0,0,0,0,0,0,-1.5774,-1.5858,-1.5848,-1.5998,-1.6065,-1.6143,-1.6219,-1.6209,-1.6292,-1.6284,-1.6306,-1.6326,-1.6464,-1.6504,-1.6435,-1.6671,-1.661,-1.6627,-1.664,-1.666,-1.6676,-1.6664,-1.6388,0,0,0,0,0,-1.5801,-1.5892,-1.5961,-1.6086,-1.612,-1.6164,-1.6218,-1.6227,-1.6299,-1.6328,-1.6379,-1.645,-1.6543,-1.6603,-1.6692,-1.6847,-1.6867,-1.6916,-1.6931,-1.6944,-1.696,-1.7045,-1.7068,-1.6824,-1.6823,-1.6823,0,0,-1.586,-1.5917,-1.5973,-1.6097,-1.6151,-1.6245,-1.6188,-1.6291,-1.6362,-1.6344,-1.6475,-1.6515,-1.6595,-1.6741,-1.6808,-1.678,-1.7031,-1.6958,-1.6967,-1.6976,-1.7059,-1.7082,-1.7102,-1.6831,-1.683,-1.6828,0,0,-1.6014,-1.6066,-1.6176,-1.623,-1.6311,-1.6339,-1.6365,-1.6444,-1.647,-1.6601,-1.6589,-1.6673,-1.6832,-1.689,-1.694,-1.7115,-1.7103,-1.7143,-1.7225,-1.7309,-1.7328,-1.7345,-1.7408,-1.7431,-1.7157,-1.7158,-1.7158,0,-1.6077,-1.6218,-1.6234,-1.6338,-1.6393,-1.6379,-1.6491,-1.6543,-1.665,-1.6689,-1.6654,-1.6852,-1.6905,-1.7065,-1.7107,-1.7148,-1.718,-1.7134,-1.7323,-1.7341,-1.7357,-1.7418,-1.7442,-1.7162,-1.7162,-1.7161,-1.7161,0,-1.6292,-1.6389,-1.6469,-1.657,-1.6634,-1.6742,-1.6775,-1.6837,-1.684,-1.6871,-1.7005,-1.7068,-1.7169,-1.7207,-1.7212,-1.7368,-1.7347,-1.7318,-1.7257,-1.7385,-1.7442,-1.7465,-1.7169,-1.7167,-1.7166,-1.7165,0,0,-1.6483,-1.659,-1.6619,-1.6665,-1.6753,-1.6829,-1.6936,-1.7033,-1.7087,-1.716,-1.7251,-1.7384,-1.7357,-1.7414,-1.7425,-1.7497,-1.7632,-1.7459,-1.7461,-1.749,-1.7809,-1.7832,-1.7858,-1.7623,-1.7628,-1.7631,-1.7802,0,-1.6647,-1.6835,-1.6851,-1.702,-1.7111,-1.7098,-1.7191,-1.7255,-1.7286,-1.7369,-1.7403,-1.7498,-1.7454,-1.7489,-1.756,-1.7601,-1.7697,-1.7588,-1.771,-1.7714,-1.7692,-1.7888,-1.7913,-1.8072,-1.7825,-1.7829,-1.7831,0,-1.6865,-1.6943,-1.7121,-1.7194,-1.7233,-1.7316,-1.7406,-1.7485,-1.7557,-1.7575,-1.7637,-1.7638,-1.7748,-1.7681,-1.7833,-1.7759,-1.7809,-1.7837,-1.7843,-1.7857,-1.7782,-1.7909,-1.8122,-1.8147,-1.7867,-1.7864,-1.7861,0,-1.6989,-1.7138,-1.7263,-1.7303,-1.7392,-1.7451,-1.7491,-1.7558,-1.7615,-1.7694,-1.7732,-1.7822,-1.7873,-1.7943,-1.7968,-1.7917,-1.812,-1.8055,-1.8139,-1.8139,-1.8185,-1.8182,-1.8411,-1.8214,-1.8214,-1.8213,-1.8213,0,-1.7172,-1.7281,-1.732,-1.7398,-1.752,-1.7537,-1.7658,-1.7695,-1.7755,-1.784,-1.7833,-1.7914,-1.7941,-1.8025,-1.8045,-1.8169,-1.8192,-1.821,-1.8215,-1.8212,-1.821,-1.8247,-1.8237,-1.822,-1.8218,-1.8217,-1.8216,0,-1.7332,-1.7362,-1.7498,-1.757,-1.7591,-1.7678,-1.774,-1.7815,-1.7844,-1.7951,-1.7978,-1.8024,-1.8123,-1.8154,-1.8274,-1.8287,-1.8433,-1.8426,-1.8408,-1.8409,-1.8492,-1.8485,-1.8755,-1.8792,-1.8568,-1.8571,-1.8572,0,-1.7448,-1.7532,-1.7612,-1.7668,-1.771,-1.78,-1.7857,-1.7877,-1.7938,-1.8025,-1.809,-1.8187,-1.8267,-1.8426,-1.8471,-1.8562,-1.8559,-1.8647,-1.8573,-1.8568,-1.8563,-1.8558,-1.8567,-1.8662,-1.8665,-1.8667,-1.8668,0,-1.7651,-1.7661,-1.7744,-1.7832,-1.7901,-1.7971,-1.8039,-1.8085,-1.8115,-1.8183,-1.8284,-1.8345,-1.8467,-1.8564,-1.8657,-1.8699,-1.869,-1.869,-1.8715,-1.8715,-1.8701,-1.8711,-1.8448,-1.8685,-1.8683,-1.8682,-1.8681,-1.8681,-1.7794,-1.7868,-1.7935,-1.8028,-1.808,-1.8144,-1.8217,-1.8254,-1.8338,-1.8438,-1.8444,-1.8553,-1.8622,-1.8746,-1.8792,-1.8878,-1.8853,-1.8888,-1.8897,-1.8906,-1.8914,-1.8685,-1.8895,-1.8894,-1.8894,-1.8893,-1.8893,0,-1.7998,-1.804,-1.8125,-1.8219,-1.8292,-1.8273,-1.8347,-1.841,-1.8505,-1.857,-1.8647,-1.8763,-1.8856,-1.8907,-1.9001,-1.906,-1.9058,-1.9084,-1.9081,-1.9091,-1.893,-1.89,-1.9084,-1.9084,-1.9084,-1.9084,-1.9084,-1.9084,-1.8113,-1.8237,-1.8255,-1.8404,-1.8446,-1.8552,-1.8595,-1.8654,-1.8705,-1.8834,-1.8911,-1.8943,-1.9002,-1.91,-1.9185,-1.9198,-1.9233,-1.9263,-1.9273,-1.9122,-1.9103,-1.9084,-1.9056,-1.927,-1.927,-1.9427,-1.9428,-1.9429]},{"header":{"parameterUnit":"m.s-1","parameterCategory":1,"la1":30.2991,"la2":30.254,"lo1":-89.0895,"lo2":-89.0444,"dy":0.0017,"dx":0.0017,"nx":28,"ny":28,"refTime":"2023-03-19T21:00:00:Z","depth":0,"parameterNumber":3,"parameterNumberName":"V-component_of_WINDS"},"data":[0,0,0,0,0,0,0,0,0,0,0,0,0,0,0,0,0,0,0,0,0,0,0,0,0,0,0,0,0,0,0,0,0,0,0,0,0,0,0,0,0,0,0,0,0,0,0,0,0,0,0,0,0,0,0,0,0,0,-6.307,-6.3071,0,-6.3184,-6.3186,-6.3187,-6.3078,-6.3074,-6.307,-6.3066,-6.3178,-6.3185,-6.3192,0,0,0,0,0,0,0,0,0,0,0,0,0,-6.2752,-6.2759,-6.307,-6.3071,-6.3073,-6.3184,-6.3186,-6.3187,-6.3079,-6.3074,-6.3069,-6.3064,-6.3176,-6.3184,-6.3193,0,0,0,0,0,0,0,0,0,0,0,0,0,-6.2881,-6.2761,-6.307,-6.3032,-6.303,-6.3184,-6.3186,-6.3188,-6.308,-6.3074,-6.3067,-6.3061,-6.3173,-6.3184,-6.3194,-6.3389,0,0,-6.3226,-6.3231,0,0,0,0,0,0,0,0,-6.2874,-6.2892,-6.3036,-6.3035,-6.3033,-6.3111,-6.3115,-6.3255,-6.3082,-6.3061,-6.3065,-6.3058,-6.3161,-6.3172,-6.3208,-6.3394,-6.3399,-6.3227,-6.3234,-6.3238,-6.3241,0,0,0,0,0,0,0,-6.2865,-6.2887,-6.3115,-6.3039,-6.3037,-6.3008,-6.3019,-6.3141,-6.3146,-6.3062,-6.3055,-6.307,-6.3159,-6.3198,-6.3209,-6.3401,-6.3227,-6.3236,-6.3243,-6.3247,-6.375,-6.3757,0,0,0,0,0,0,-6.2861,-6.288,-6.3111,-6.3118,-6.2936,-6.3019,-6.3031,-6.3092,-6.3144,-6.3146,-6.3075,-6.3065,-6.3183,-6.3197,-6.3213,-6.3443,-6.3238,-6.3248,-6.3254,-6.3743,-6.3752,-6.376,0,0,0,0,0,0,-6.2854,-6.2882,-6.3107,-6.2997,-6.3024,-6.3031,-6.31,-6.3098,-6.3137,-6.3154,-6.3154,-6.3115,-6.3178,-6.3198,-6.3346,-6.3445,-6.3253,-6.3262,-6.3735,-6.3746,-6.3756,-6.3906,0,0,0,0,0,0,-6.2846,-6.2881,-6.2956,-6.3,-6.303,-6.324,-6.3107,-6.3105,-6.3156,-6.3143,-6.3191,-6.3193,-6.3175,-6.3331,-6.3356,-6.3457,-6.3271,-6.3726,-6.374,-6.3752,-6.3892,-6.3921,-6.3945,0,0,0,0,0,-6.2835,-6.2994,-6.2961,-6.2989,-6.3125,-6.3246,-6.3263,-6.324,-6.3164,-6.3239,-6.325,-6.3191,-6.3431,-6.3347,-6.3375,-6.348,-6.372,-6.3736,-6.3751,-6.3881,-6.3915,-6.3944,0,0,0,0,0,0,-6.2961,-6.2999,-6.2963,-6.3141,-6.3191,-6.3228,-6.3322,-6.3278,-6.3349,-6.3334,-6.3301,-6.3313,-6.3469,-6.3489,-6.3395,-6.367,-6.3563,-6.3585,-6.3651,-6.3684,-6.371,-6.3701,-6.3279,0,0,0,0,0,-6.301,-6.3106,-6.3134,-6.3288,-6.3315,-6.3315,-6.3366,-6.3344,-6.3394,-6.3415,-6.3436,-6.3486,-6.3571,-6.3629,-6.3709,-6.3895,-6.3902,-6.398,-6.4006,-6.4028,-6.4047,-6.4145,-6.4179,-6.3812,-6.3812,-6.3811,0,0,-6.3111,-6.3144,-6.3207,-6.3314,-6.3351,-6.3449,-6.3333,-6.3443,-6.3515,-6.3431,-6.3572,-6.3589,-6.3642,-6.3809,-6.3884,-6.383,-6.415,-6.4048,-6.4065,-6.4073,-6.4164,-6.4199,-6.423,-6.3822,-6.382,-6.3819,0,0,-6.3346,-6.3382,-6.3513,-6.3552,-6.3609,-6.3607,-6.3639,-6.3682,-6.369,-6.3831,-6.3769,-6.3854,-6.4003,-6.4043,-6.4082,-6.4331,-6.4278,-6.4358,-6.4494,-6.459,-6.4618,-6.4644,-6.4731,-6.4763,-6.4377,-6.4377,-6.4378,0,-6.3465,-6.3613,-6.3586,-6.3701,-6.3749,-6.3678,-6.381,-6.3848,-6.3928,-6.3961,-6.3901,-6.4086,-6.4116,-6.4291,-6.4351,-6.4386,-6.442,-6.4352,-6.4617,-6.4642,-6.4665,-6.4748,-6.4781,-6.4386,-6.4385,-6.4384,-6.4384,0,-6.3755,-6.3858,-6.3958,-6.4037,-6.4097,-6.4219,-6.4209,-6.4272,-6.4245,-6.4248,-6.4391,-6.4425,-6.451,-6.455,-6.4524,-6.4721,-6.4685,-6.4622,-6.4513,-6.471,-6.4787,-6.4818,-6.44,-6.4396,-6.4394,-6.4391,0,0,-6.4074,-6.4136,-6.4173,-6.4207,-6.4264,-6.4342,-6.446,-6.4545,-6.4598,-6.4655,-6.4752,-6.4879,-6.482,-6.4865,-6.4842,-6.4926,-6.5118,-6.4852,-6.4852,-6.4899,-6.5334,-6.5382,-6.5419,-6.5084,-6.509,-6.5095,-6.5329,0,-6.4309,-6.4517,-6.4495,-6.4692,-6.4785,-6.4718,-6.482,-6.4865,-6.4872,-6.495,-6.4956,-6.5047,-6.4963,-6.4989,-6.5069,-6.5078,-6.5205,-6.5061,-6.5172,-6.5176,-6.516,-6.5459,-6.551,-6.573,-6.536,-6.5365,-6.5368,0,-6.4613,-6.4681,-6.4887,-6.4927,-6.4966,-6.5059,-6.5133,-6.521,-6.5258,-6.5256,-6.5307,-6.5269,-6.5385,-6.5275,-6.5433,-6.5336,-6.5379,-6.539,-6.5398,-6.5407,-6.5284,-6.5475,-6.5799,-6.5832,-6.5416,-6.5412,-6.5409,0,-6.4823,-6.4966,-6.5107,-6.5139,-6.519,-6.5256,-6.528,-6.5322,-6.5373,-6.5438,-6.547,-6.5547,-6.5589,-6.5648,-6.5631,-6.5553,-6.5793,-6.5681,-6.5793,-6.5793,-6.5846,-6.5843,-6.6181,-6.5876,-6.5876,-6.5875,-6.5874,0,-6.5088,-6.5217,-6.5202,-6.5289,-6.543,-6.5403,-6.5542,-6.5557,-6.5595,-6.5682,-6.5628,-6.571,-6.5683,-6.5763,-6.5751,-6.5883,-6.5902,-6.5902,-6.5897,-6.5907,-6.5907,-6.5935,-6.5919,-6.5884,-6.5882,-6.588,-6.5879,0,-6.5347,-6.5343,-6.5492,-6.5528,-6.554,-6.5642,-6.5671,-6.5752,-6.5753,-6.5864,-6.5888,-6.589,-6.5981,-6.597,-6.6072,-6.6063,-6.6227,-6.6204,-6.6212,-6.6206,-6.6318,-6.6307,-6.6685,-6.6732,-6.6398,-6.6401,-6.6404,0,-6.5516,-6.5613,-6.566,-6.5715,-6.5743,-6.5833,-6.5885,-6.5861,-6.5917,-6.5978,-6.6051,-6.6138,-6.6206,-6.6354,-6.6364,-6.6441,-6.6418,-6.6545,-6.6429,-6.6435,-6.6418,-6.6413,-6.6421,-6.6568,-6.6572,-6.6575,-6.6578,0,-6.5817,-6.5809,-6.5887,-6.5965,-6.6029,-6.6088,-6.6141,-6.6189,-6.617,-6.6235,-6.6329,-6.6382,-6.6486,-6.6572,-6.6644,-6.6666,-6.6619,-6.6614,-6.6644,-6.6654,-6.6654,-6.6654,-6.6273,-6.6605,-6.6603,-6.6601,-6.6599,-6.6598,-6.6035,-6.6117,-6.6162,-6.625,-6.6288,-6.6339,-6.6416,-6.6427,-6.6505,-6.6589,-6.6569,-6.6674,-6.6717,-6.681,-6.6839,-6.6919,-6.6873,-6.6916,-6.6927,-6.6938,-6.695,-6.6642,-6.6933,-6.6932,-6.6931,-6.693,-6.693,0,-6.6331,-6.6357,-6.6438,-6.6515,-6.6584,-6.6534,-6.659,-6.665,-6.6744,-6.6788,-6.6857,-6.6963,-6.7045,-6.7061,-6.7139,-6.72,-6.718,-6.7221,-6.7216,-6.7221,-6.6988,-6.6954,-6.7236,-6.7236,-6.7236,-6.7236,-6.7236,-6.7236,-6.6494,-6.663,-6.6628,-6.6781,-6.6805,-6.6908,-6.6944,-6.699,-6.7026,-6.7147,-6.7216,-6.7226,-6.7258,-6.7338,-6.7411,-6.7413,-6.7443,-6.7493,-6.7487,-6.7269,-6.7238,-6.7209,-6.7177,-6.75,-6.7501,-6.7713,-6.7715,-6.7716]}]]